Keps
Threads by month
- ----- 2024 -----
- December
- November
- October
- September
- August
- July
- June
- May
- April
- March
- February
- January
- ----- 2023 -----
- December
- November
- October
- September
- August
- July
- June
- May
- April
- March
- February
- January
- ----- 2022 -----
- December
- November
- October
- September
- August
- July
- June
- May
- April
- March
- February
- January
- ----- 2021 -----
- December
- November
- October
- September
- August
- July
- June
- May
- April
- March
- February
- January
- ----- 2020 -----
- December
- November
- October
- September
- August
- July
- June
- May
- April
- March
- February
- January
- ----- 2019 -----
- December
- November
- October
- September
- August
- July
- June
- May
- April
- March
- February
- January
- ----- 2018 -----
- December
- November
- October
- September
- August
- July
- June
- May
- April
- March
- February
- January
- ----- 2017 -----
- December
- November
- October
- September
- August
- July
- June
- May
- April
- March
- February
- January
- ----- 2016 -----
- December
- November
- October
- September
- August
- July
- June
- May
- April
- March
- February
- January
- ----- 2015 -----
- December
- November
- October
- September
- August
- July
- June
- May
- April
- March
- February
- January
- ----- 2014 -----
- December
- November
- October
- September
- August
- July
- June
- May
- April
- March
- February
- January
- ----- 2013 -----
- December
- November
- October
- September
- August
- July
- June
- May
- April
- March
- February
- January
- ----- 2012 -----
- December
- November
- October
- September
- August
- July
- June
- May
- April
- March
- February
- January
- ----- 2011 -----
- December
- November
- October
- September
- August
- July
- June
- May
- April
- March
- February
- January
- ----- 2010 -----
- December
- November
- October
- September
- August
- July
- June
- May
- April
- March
- February
- January
- ----- 2009 -----
- December
- November
- October
- September
- August
- July
- June
- May
- April
- March
- February
- January
- ----- 2008 -----
- December
- November
- October
- September
- August
- July
- June
- May
- April
- March
- February
- January
- ----- 2007 -----
- December
- November
- October
- September
- August
- July
- June
- May
- April
- March
- February
- January
- ----- 2006 -----
- December
- November
- October
- September
September 2006
- 1 participants
- 12 discussions
SB KEPS @ AMSAT $ORB06243.N
2Line Orbital Elements 06243.AMSAT
HR AMSAT ORBITAL ELEMENTS FOR AMATEUR SATELLITES IN NASA FORMAT
FROM WA5QGD FORT WORTH,TX August 31, 2006
Subscribe/unsubscribe to KEPS at http://www.amsat.org/mailman/listinfo/keps
BID: ORB06243.N
DECODE 2-LINE ELSETS WITH THE FOLLOWING KEY:
1 AAAAAU 00 0 0 BBBBB.BBBBBBBB .CCCCCCCC 00000-0 00000-0 0 DDDZ
2 AAAAA EEE.EEEE FFF.FFFF GGGGGGG HHH.HHHH III.IIII JJ.JJJJJJJJKKKKKZ
KEY: A-CATALOGNUM B-EPOCHTIME C-DECAY D-ELSETNUM E-INCLINATION F-RAAN
G-ECCENTRICITY H-ARGPERIGEE I-MNANOM J-MNMOTION K-ORBITNUM Z-CHECKSUM
TO ALL RADIO AMATEURS BT
AO-07
1 07530U 74089B 06242.80562893 -.00000028 00000-0 10000-3 0 6686
2 07530 101.5626 283.8557 0012220 101.5416 258.7031 12.53571531454733
AO-10
1 14129U 83058B 06240.17287781 -.00000125 00000-0 10000-3 0 03081
2 14129 027.3414 318.4502 6030831 312.9332 010.3390 02.05865176174533
UO-11
1 14781U 84021B 06242.71651377 -.00000176 00000-0 -16181-4 0 1615
2 14781 098.2070 254.5173 0009820 031.3727 328.8054 14.79453964206783
RS-10/11
1 18129U 87054A 06242.60152103 .00000045 00000-0 32443-4 0 00841
2 18129 082.9237 273.1115 0010126 245.3510 114.6588 13.72778040961361
RS-15
1 23439U 94085A 06242.96054546 -.00000039 00000-0 10597-3 0 09965
2 23439 064.8169 116.2947 0166607 241.1875 117.2232 11.27551981480977
FO-29
1 24278U 96046B 06242.93829525 .00000015 00000-0 47801-4 0 03203
2 24278 098.5150 237.1394 0351330 115.7724 248.0111 13.52923633495657
SO-33
1 25509U 98061B 06242.82244105 .00000034 00000-0 -35181-5 0 07343
2 25509 031.4323 067.3597 0354997 048.8940 314.1778 14.28113951409713
AO-40
1 26609U 00072B 06242.91088851 .00000000 00000-0 10000-3 0 7730
2 26609 005.9231 223.1109 7963446 196.6962 098.0341 01.25583088 26790
VO-52
1 28650U 05017B 06242.63624647 .00000384 00000-0 55880-4 0 04176
2 28650 097.8668 314.3321 0028399 118.5799 241.8303 14.81163848071402
AO-16
1 20439U 90005D 06242.57813919 .00000004 00000-0 16479-4 0 08331
2 20439 098.1883 248.3418 0010915 338.6015 021.4704 14.31731220866966
WO-18
1 20441U 90005F 06243.60913647 .00000009 00000-0 18575-4 0 323
2 20441 098.1871 253.9386 0011446 335.5228 024.5407 14.31801378867174
LO-19
1 20442U 90005G 06243.64377507 -.00000010 00000-0 11334-4 0 7693
2 20442 098.1876 258.8607 0011793 334.5882 025.4724 14.31974132867250
UO-22
1 21575U 91050B 06242.69945711 .00000014 00000-0 18085-4 0 07877
2 21575 098.3029 198.0870 0006761 200.8457 159.2444 14.39560097793734
KO-23
1 22077U 92052B 06242.69501942 -.00000037 00000-0 10000-3 0 8855
2 22077 066.0879 306.0096 0005276 338.2541 021.8252 12.86437721660122
AO-27
1 22825U 93061C 06242.44818090 -.00000018 00000-0 89506-5 0 4848
2 22825 098.2896 220.6574 0009375 045.2267 314.9689 14.29181733673969
IO-26
1 22826U 93061D 06242.68532004 .00000000 00000-0 16175-4 0 1762
2 22826 098.2842 222.0657 0009803 042.8467 317.3468 14.29425834674078
PO-28
1 22829U 93061G 06242.64300738 -.00000057 00000-0 -61517-5 0 4597
2 22829 098.2743 223.2244 0010220 019.4034 340.7524 14.30120621674285
TO-31
1 25396U 98043C 06242.72911611 -.00000169 00000-0 -55493-4 0 6110
2 25396 098.4715 300.3798 0002438 001.5057 358.6119 14.23710740422950
GO-32
1 25397U 98043D 06242.78704924 -.00000115 00000-0 -32237-4 0 974
2 25397 098.4602 297.0171 0001464 035.5725 324.5532 14.23109374422855
UO-36
1 25693U 99021A 06242.77375152 -.00000121 00000-0 30459-5 0 1271
2 25693 064.5604 013.6182 0026458 323.1174 036.8110 14.78611263396814
MO-46
1 26548U 00057D 06242.76002229 .00000137 00000-0 34909-4 0 05849
2 26548 064.5602 001.0773 0044494 236.5200 123.1656 14.83009174320478
NO-44
1 26931U 01043C 06242.79577121 -.00000009 00000-0 28707-4 0 03905
2 26931 067.0525 175.5026 0005879 252.2027 107.8430 14.29450264256590
SO-50
1 27607U 02058C 06242.46455216 -.00000010 00000-0 20160-4 0 1081
2 27607 064.5558 247.6160 0036667 117.3948 243.0889 14.71166287198357
CO-57
1 27848U 03031J 06242.53133348 .00000065 00000-0 50881-4 0 08042
2 27848 098.7192 249.1001 0009334 208.9080 151.1580 14.20281084164192
AO-51
1 28375U 04025K 06242.67633046 .00000005 00000-0 14628-4 0 6161
2 28375 098.1581 291.2918 0084665 342.9469 016.8881 14.40530671113881
XO-53
1 28894U 05043E 06242.69745403 .00000047 00000-0 19767-4 0 06414
2 28894 098.1560 139.8034 0016956 304.0284 055.9309 14.59502089044842
CO-56
1 28941U 06005C 06242.97644674 .00013002 24570-5 16672-3 0 01981
2 28941 098.1735 268.9202 0272072 210.6448 147.8656 15.27087787028956
NOAA-10
1 16969U 86073A 06243.43407015 -.00000022 00000-0 94350-5 0 3304
2 16969 098.7595 255.2282 0011698 294.2685 065.7284 14.27302264 37893
NOAA-11
1 19531U 88089A 06243.32397632 -.00000214 00000-0 -87951-4 0 2640
2 19531 098.8252 330.9266 0012193 133.0728 227.1486 14.14814648925168
NOAA-12
1 21263U 91032A 06243.20964070 .00000128 00000-0 72987-4 0 7561
2 21263 098.7358 236.1950 0011952 228.4373 131.5771 14.25506659794939
MET-3/5
1 21655U 91056A 06242.96823435 .00000051 00000-0 10000-3 0 01682
2 21655 082.5538 207.9514 0012207 209.5539 150.4894 13.17007185723203
MET-2/21
1 22782U 93055A 06242.66185302 -.00000018 00000-0 -29834-4 0 06020
2 22782 082.5444 272.3713 0021623 335.1772 024.8342 13.83609593656341
OKEAN-4
1 23317U 94066A 06242.73922903 .00000206 00000-0 22592-4 0 00386
2 23317 082.5396 207.4601 0023598 126.4371 233.9046 14.82390414641028
NOAA-14
1 23455U 94089A 06243.18135152 -.00000167 00000-0 -64226-4 0 2566
2 23455 099.0311 302.2320 0009186 194.7594 165.3329 14.13678559601666
SICH-1
1 23657U 95046A 06243.72959949 .00000201 00000-0 22538-4 0 8419
2 23657 082.5319 347.4459 0025543 113.1954 247.1985 14.81384902593173
NOAA-15
1 25338U 98030A 06243.17566345 .00000173 00000-0 92845-4 0 6443
2 25338 098.5200 243.2450 0010984 150.7146 209.4665 14.24600727431398
RESURS
1 25394U 98043A 06242.75938200 .00000005 00000-0 20387-4 0 04539
2 25394 098.4884 303.1123 0001292 355.6425 004.4743 14.24110355423011
FENGYUN1
1 25730U 99025A 06242.60680948 .00000115 00000-0 86004-4 0 08131
2 25730 098.6310 232.3553 0013754 290.8434 069.1263 14.11814782376515
OKEAN-0
1 25860U 99039A 06243.72971409 .00000034 00000-0 12435-4 0 8394
2 25860 097.7332 254.5425 0000655 106.6845 253.4430 14.73384803382877
NOAA-16
1 26536U 00055A 06243.16804884 .00000266 00000-0 16939-3 0 240
2 26536 099.0735 210.6935 0009735 271.1094 088.8941 14.12366615306160
NOAA-17
1 27453U 02032A 06243.22447804 .00000230 00000-0 11929-3 0 434
2 27453 098.6152 313.9621 0011404 213.3315 146.7158 14.23806086217456
NOAA-18
1 28654U 05018A 06242.87798583 .00000065 00000-0 60305-4 0 06174
2 28654 098.7902 184.5686 0014862 013.1706 346.9826 14.10987031065912
HUBBLE
1 20580U 90037B 06242.54605249 .00000389 00000-0 17467-4 0 6876
2 20580 028.4700 285.1386 0003658 249.2177 110.8024 15.00083480696270
UARS
1 21701U 91063B 06242.96310641 .00006414 00000-0 12153-3 0 08724
2 21701 056.9755 129.9855 0100784 356.6487 003.3878 15.44409916820853
PO-34
1 25520U 98064B 06242.50367611 .00000528 00000-0 16432-4 0 05636
2 25520 028.4619 253.9497 0005102 327.8567 032.1719 15.16774933433347
ISS
1 25544U 98067A 06243.81789068 .00012796 00000-0 86237-4 0 5904
2 25544 051.6315 157.8145 0011076 286.6600 144.6243 15.75485411445094
OO-38
1 26063U 00004C 06242.50963779 -.00000019 00000-0 13662-4 0 07071
2 26063 100.1892 186.9360 0036548 258.1633 101.5447 14.35775050345345
NO-45
1 26932U 01043D 06242.94642732 -.00000061 00000-0 85887-5 0 04120
2 26932 067.0553 174.8307 0007397 241.3811 118.6544 14.29532977256658
UWE-1
1 28892U 05043C 06242.72482262 .00000177 00000-0 47143-4 0 05408
2 28892 098.1529 139.7036 0016862 302.1660 057.7901 14.59388665044849
CO-58
1 28895U 05043F 06242.71333312 .00000152 00000-0 41777-4 0 05243
2 28895 098.1556 139.7989 0017208 301.9347 058.0188 14.59439194044725
NCUBE2
1 28897U 05043H 06242.68268432 .00000135 00000-0 38171-4 0 01130
2 28897 098.1536 139.7488 0016797 303.9213 056.0379 14.59595308036995
/EX
1
0
SB KEPS @ AMSAT $ORB06243.O
Orbital Elements 06243.OSCAR
HR AMSAT ORBITAL ELEMENTS FOR OSCAR SATELLITES
FROM WA5QGD FORT WORTH,TX August 31, 2006
Subscribe/unsubscribe to KEPS at http://www.amsat.org/mailman/listinfo/keps
BID: ORB06243.O
TO ALL RADIO AMATEURS BT
Satellite: AO-07
Catalog number: 07530
Epoch time: 06242.80562893
Element set: 668
Inclination: 101.5626 deg
RA of node: 283.8557 deg
Eccentricity: 0.0012220
Arg of perigee: 101.5416 deg
Mean anomaly: 258.7031 deg
Mean motion: 12.53571531 rev/day
Decay rate: -2.8e-07 rev/day^2
Epoch rev: 45473
Checksum: 285
Satellite: AO-10
Catalog number: 14129
Epoch time: 06240.17287781
Element set: 0308
Inclination: 027.3414 deg
RA of node: 318.4502 deg
Eccentricity: 0.6030831
Arg of perigee: 312.9332 deg
Mean anomaly: 010.3390 deg
Mean motion: 02.05865176 rev/day
Decay rate: -1.25e-06 rev/day^2
Epoch rev: 17453
Checksum: 265
Satellite: UO-11
Catalog number: 14781
Epoch time: 06242.71651377
Element set: 161
Inclination: 098.2070 deg
RA of node: 254.5173 deg
Eccentricity: 0.0009820
Arg of perigee: 031.3727 deg
Mean anomaly: 328.8054 deg
Mean motion: 14.79453964 rev/day
Decay rate: -1.76e-06 rev/day^2
Epoch rev: 20678
Checksum: 307
Satellite: RS-10/11
Catalog number: 18129
Epoch time: 06242.60152103
Element set: 0084
Inclination: 082.9237 deg
RA of node: 273.1115 deg
Eccentricity: 0.0010126
Arg of perigee: 245.3510 deg
Mean anomaly: 114.6588 deg
Mean motion: 13.72778040 rev/day
Decay rate: 4.5e-07 rev/day^2
Epoch rev: 96136
Checksum: 266
Satellite: RS-15
Catalog number: 23439
Epoch time: 06242.96054546
Element set: 0996
Inclination: 064.8169 deg
RA of node: 116.2947 deg
Eccentricity: 0.0166607
Arg of perigee: 241.1875 deg
Mean anomaly: 117.2232 deg
Mean motion: 11.27551981 rev/day
Decay rate: -3.9e-07 rev/day^2
Epoch rev: 48097
Checksum: 332
Satellite: FO-29
Catalog number: 24278
Epoch time: 06242.93829525
Element set: 0320
Inclination: 098.5150 deg
RA of node: 237.1394 deg
Eccentricity: 0.0351330
Arg of perigee: 115.7724 deg
Mean anomaly: 248.0111 deg
Mean motion: 13.52923633 rev/day
Decay rate: 1.5e-07 rev/day^2
Epoch rev: 49565
Checksum: 295
Satellite: SO-33
Catalog number: 25509
Epoch time: 06242.82244105
Element set: 0734
Inclination: 031.4323 deg
RA of node: 067.3597 deg
Eccentricity: 0.0354997
Arg of perigee: 048.8940 deg
Mean anomaly: 314.1778 deg
Mean motion: 14.28113951 rev/day
Decay rate: 3.4e-07 rev/day^2
Epoch rev: 40971
Checksum: 309
Satellite: AO-40
Catalog number: 26609
Epoch time: 06242.91088851
Element set: 773
Inclination: 005.9231 deg
RA of node: 223.1109 deg
Eccentricity: 0.7963446
Arg of perigee: 196.6962 deg
Mean anomaly: 098.0341 deg
Mean motion: 01.25583088 rev/day
Decay rate: .00000000 rev/day^2
Epoch rev: 2679
Checksum: 306
Satellite: VO-52
Catalog number: 28650
Epoch time: 06242.63624647
Element set: 0417
Inclination: 097.8668 deg
RA of node: 314.3321 deg
Eccentricity: 0.0028399
Arg of perigee: 118.5799 deg
Mean anomaly: 241.8303 deg
Mean motion: 14.81163848 rev/day
Decay rate: 3.84e-06 rev/day^2
Epoch rev: 07140
Checksum: 326
/EX
SB KEPS @ AMSAT $ORB06243.D
Orbital Elements 06243.MICROS
HR AMSAT ORBITAL ELEMENTS FOR THE MICROSATS
FROM WA5QGD FORT WORTH,TX August 31, 2006
Send SUBSCRIBE KEPS/UNSUBSCRIBE KEPS to majordomo(a)amsat.org only
BID: ORB06243.D
TO ALL RADIO AMATEURS BT
Satellite: AO-16
Catalog number: 20439
Epoch time: 06242.57813919
Element set: 0833
Inclination: 098.1883 deg
RA of node: 248.3418 deg
Eccentricity: 0.0010915
Arg of perigee: 338.6015 deg
Mean anomaly: 021.4704 deg
Mean motion: 14.31731220 rev/day
Decay rate: 4.0e-08 rev/day^2
Epoch rev: 86696
Checksum: 298
Satellite: WO-18
Catalog number: 20441
Epoch time: 06243.60913647
Element set: 32
Inclination: 098.1871 deg
RA of node: 253.9386 deg
Eccentricity: 0.0011446
Arg of perigee: 335.5228 deg
Mean anomaly: 024.5407 deg
Mean motion: 14.31801378 rev/day
Decay rate: 9.0e-08 rev/day^2
Epoch rev: 86717
Checksum: 298
Satellite: LO-19
Catalog number: 20442
Epoch time: 06243.64377507
Element set: 769
Inclination: 098.1876 deg
RA of node: 258.8607 deg
Eccentricity: 0.0011793
Arg of perigee: 334.5882 deg
Mean anomaly: 025.4724 deg
Mean motion: 14.31974132 rev/day
Decay rate: -1.0e-07 rev/day^2
Epoch rev: 86725
Checksum: 327
Satellite: UO-22
Catalog number: 21575
Epoch time: 06242.69945711
Element set: 0787
Inclination: 098.3029 deg
RA of node: 198.0870 deg
Eccentricity: 0.0006761
Arg of perigee: 200.8457 deg
Mean anomaly: 159.2444 deg
Mean motion: 14.39560097 rev/day
Decay rate: 1.4e-07 rev/day^2
Epoch rev: 79373
Checksum: 330
Satellite: KO-23
Catalog number: 22077
Epoch time: 06242.69501942
Element set: 885
Inclination: 066.0879 deg
RA of node: 306.0096 deg
Eccentricity: 0.0005276
Arg of perigee: 338.2541 deg
Mean anomaly: 021.8252 deg
Mean motion: 12.86437721 rev/day
Decay rate: -3.7e-07 rev/day^2
Epoch rev: 66012
Checksum: 298
Satellite: AO-27
Catalog number: 22825
Epoch time: 06242.44818090
Element set: 484
Inclination: 098.2896 deg
RA of node: 220.6574 deg
Eccentricity: 0.0009375
Arg of perigee: 045.2267 deg
Mean anomaly: 314.9689 deg
Mean motion: 14.29181733 rev/day
Decay rate: -1.8e-07 rev/day^2
Epoch rev: 67396
Checksum: 341
Satellite: IO-26
Catalog number: 22826
Epoch time: 06242.68532004
Element set: 176
Inclination: 098.2842 deg
RA of node: 222.0657 deg
Eccentricity: 0.0009803
Arg of perigee: 042.8467 deg
Mean anomaly: 317.3468 deg
Mean motion: 14.29425834 rev/day
Decay rate: .00000000 rev/day^2
Epoch rev: 67407
Checksum: 293
Satellite: PO-28
Catalog number: 22829
Epoch time: 06242.64300738
Element set: 459
Inclination: 098.2743 deg
RA of node: 223.2244 deg
Eccentricity: 0.0010220
Arg of perigee: 019.4034 deg
Mean anomaly: 340.7524 deg
Mean motion: 14.30120621 rev/day
Decay rate: -5.7e-07 rev/day^2
Epoch rev: 67428
Checksum: 270
Satellite: TO-31
Catalog number: 25396
Epoch time: 06242.72911611
Element set: 611
Inclination: 098.4715 deg
RA of node: 300.3798 deg
Eccentricity: 0.0002438
Arg of perigee: 001.5057 deg
Mean anomaly: 358.6119 deg
Mean motion: 14.23710740 rev/day
Decay rate: -1.69e-06 rev/day^2
Epoch rev: 42295
Checksum: 289
Satellite: GO-32
Catalog number: 25397
Epoch time: 06242.78704924
Element set: 97
Inclination: 098.4602 deg
RA of node: 297.0171 deg
Eccentricity: 0.0001464
Arg of perigee: 035.5725 deg
Mean anomaly: 324.5532 deg
Mean motion: 14.23109374 rev/day
Decay rate: -1.15e-06 rev/day^2
Epoch rev: 42285
Checksum: 297
Satellite: UO-36
Catalog number: 25693
Epoch time: 06242.77375152
Element set: 127
Inclination: 064.5604 deg
RA of node: 013.6182 deg
Eccentricity: 0.0026458
Arg of perigee: 323.1174 deg
Mean anomaly: 036.8110 deg
Mean motion: 14.78611263 rev/day
Decay rate: -1.21e-06 rev/day^2
Epoch rev: 39681
Checksum: 287
Satellite: MO-46
Catalog number: 26548
Epoch time: 06242.76002229
Element set: 0584
Inclination: 064.5602 deg
RA of node: 001.0773 deg
Eccentricity: 0.0044494
Arg of perigee: 236.5200 deg
Mean anomaly: 123.1656 deg
Mean motion: 14.83009174 rev/day
Decay rate: 1.37e-06 rev/day^2
Epoch rev: 32047
Checksum: 276
Satellite: NO-44
Catalog number: 26931
Epoch time: 06242.79577121
Element set: 0390
Inclination: 067.0525 deg
RA of node: 175.5026 deg
Eccentricity: 0.0005879
Arg of perigee: 252.2027 deg
Mean anomaly: 107.8430 deg
Mean motion: 14.29450264 rev/day
Decay rate: -9.0e-08 rev/day^2
Epoch rev: 25659
Checksum: 303
Satellite: SO-50
Catalog number: 27607
Epoch time: 06242.46455216
Element set: 108
Inclination: 064.5558 deg
RA of node: 247.6160 deg
Eccentricity: 0.0036667
Arg of perigee: 117.3948 deg
Mean anomaly: 243.0889 deg
Mean motion: 14.71166287 rev/day
Decay rate: -1.0e-07 rev/day^2
Epoch rev: 19835
Checksum: 319
Satellite: CO-57
Catalog number: 27848
Epoch time: 06242.53133348
Element set: 0804
Inclination: 098.7192 deg
RA of node: 249.1001 deg
Eccentricity: 0.0009334
Arg of perigee: 208.9080 deg
Mean anomaly: 151.1580 deg
Mean motion: 14.20281084 rev/day
Decay rate: 6.5e-07 rev/day^2
Epoch rev: 16419
Checksum: 290
Satellite: AO-51
Catalog number: 28375
Epoch time: 06242.67633046
Element set: 616
Inclination: 098.1581 deg
RA of node: 291.2918 deg
Eccentricity: 0.0084665
Arg of perigee: 342.9469 deg
Mean anomaly: 016.8881 deg
Mean motion: 14.40530671 rev/day
Decay rate: 5.0e-08 rev/day^2
Epoch rev: 11388
Checksum: 324
Satellite: XO-53
Catalog number: 28894
Epoch time: 06242.69745403
Element set: 0641
Inclination: 098.1560 deg
RA of node: 139.8034 deg
Eccentricity: 0.0016956
Arg of perigee: 304.0284 deg
Mean anomaly: 055.9309 deg
Mean motion: 14.59502089 rev/day
Decay rate: 4.7e-07 rev/day^2
Epoch rev: 04484
Checksum: 323
Satellite: CO-56
Catalog number: 28941
Epoch time: 06242.97644674
Element set: 0198
Inclination: 098.1735 deg
RA of node: 268.9202 deg
Eccentricity: 0.0272072
Arg of perigee: 210.6448 deg
Mean anomaly: 147.8656 deg
Mean motion: 15.27087787 rev/day
Decay rate: 1.3002e-04 rev/day^2
Epoch rev: 02895
Checksum: 348
/EX
SB KEPS @ AMSAT $ORB06243.W
Orbital Elements 06243.WEATHER
HR AMSAT ORBITAL ELEMENTS FOR WEATHER SATELLITES
FROM WA5QGD FORT WORTH,TX August 31, 2006
Send SUBSCRIBE KEPS/UNSUBSCRIBE KEPS to majordomo(a)amsat.org only
BID: ORB06243.W
TO ALL RADIO AMATEURS BT
Satellite: NOAA-10
Catalog number: 16969
Epoch time: 06243.43407015
Element set: 330
Inclination: 098.7595 deg
RA of node: 255.2282 deg
Eccentricity: 0.0011698
Arg of perigee: 294.2685 deg
Mean anomaly: 065.7284 deg
Mean motion: 14.27302264 rev/day
Decay rate: -2.2e-07 rev/day^2
Epoch rev: 3789
Checksum: 313
Satellite: NOAA-11
Catalog number: 19531
Epoch time: 06243.32397632
Element set: 264
Inclination: 098.8252 deg
RA of node: 330.9266 deg
Eccentricity: 0.0012193
Arg of perigee: 133.0728 deg
Mean anomaly: 227.1486 deg
Mean motion: 14.14814648 rev/day
Decay rate: -2.14e-06 rev/day^2
Epoch rev: 92516
Checksum: 298
Satellite: NOAA-12
Catalog number: 21263
Epoch time: 06243.20964070
Element set: 756
Inclination: 098.7358 deg
RA of node: 236.1950 deg
Eccentricity: 0.0011952
Arg of perigee: 228.4373 deg
Mean anomaly: 131.5771 deg
Mean motion: 14.25506659 rev/day
Decay rate: 1.28e-06 rev/day^2
Epoch rev: 79493
Checksum: 312
Satellite: MET-3/5
Catalog number: 21655
Epoch time: 06242.96823435
Element set: 0168
Inclination: 082.5538 deg
RA of node: 207.9514 deg
Eccentricity: 0.0012207
Arg of perigee: 209.5539 deg
Mean anomaly: 150.4894 deg
Mean motion: 13.17007185 rev/day
Decay rate: 5.1e-07 rev/day^2
Epoch rev: 72320
Checksum: 295
Satellite: MET-2/21
Catalog number: 22782
Epoch time: 06242.66185302
Element set: 0602
Inclination: 082.5444 deg
RA of node: 272.3713 deg
Eccentricity: 0.0021623
Arg of perigee: 335.1772 deg
Mean anomaly: 024.8342 deg
Mean motion: 13.83609593 rev/day
Decay rate: -1.8e-07 rev/day^2
Epoch rev: 65634
Checksum: 288
Satellite: OKEAN-4
Catalog number: 23317
Epoch time: 06242.73922903
Element set: 0038
Inclination: 082.5396 deg
RA of node: 207.4601 deg
Eccentricity: 0.0023598
Arg of perigee: 126.4371 deg
Mean anomaly: 233.9046 deg
Mean motion: 14.82390414 rev/day
Decay rate: 2.06e-06 rev/day^2
Epoch rev: 64102
Checksum: 278
Satellite: NOAA-14
Catalog number: 23455
Epoch time: 06243.18135152
Element set: 256
Inclination: 099.0311 deg
RA of node: 302.2320 deg
Eccentricity: 0.0009186
Arg of perigee: 194.7594 deg
Mean anomaly: 165.3329 deg
Mean motion: 14.13678559 rev/day
Decay rate: -1.67e-06 rev/day^2
Epoch rev: 60166
Checksum: 298
Satellite: SICH-1
Catalog number: 23657
Epoch time: 06243.72959949
Element set: 841
Inclination: 082.5319 deg
RA of node: 347.4459 deg
Eccentricity: 0.0025543
Arg of perigee: 113.1954 deg
Mean anomaly: 247.1985 deg
Mean motion: 14.81384902 rev/day
Decay rate: 2.01e-06 rev/day^2
Epoch rev: 59317
Checksum: 327
Satellite: NOAA-15
Catalog number: 25338
Epoch time: 06243.17566345
Element set: 644
Inclination: 098.5200 deg
RA of node: 243.2450 deg
Eccentricity: 0.0010984
Arg of perigee: 150.7146 deg
Mean anomaly: 209.4665 deg
Mean motion: 14.24600727 rev/day
Decay rate: 1.73e-06 rev/day^2
Epoch rev: 43139
Checksum: 289
Satellite: RESURS
Catalog number: 25394
Epoch time: 06242.75938200
Element set: 0453
Inclination: 098.4884 deg
RA of node: 303.1123 deg
Eccentricity: 0.0001292
Arg of perigee: 355.6425 deg
Mean anomaly: 004.4743 deg
Mean motion: 14.24110355 rev/day
Decay rate: 5.0e-08 rev/day^2
Epoch rev: 42301
Checksum: 255
Satellite: FENGYUN1
Catalog number: 25730
Epoch time: 06242.60680948
Element set: 0813
Inclination: 098.6310 deg
RA of node: 232.3553 deg
Eccentricity: 0.0013754
Arg of perigee: 290.8434 deg
Mean anomaly: 069.1263 deg
Mean motion: 14.11814782 rev/day
Decay rate: 1.15e-06 rev/day^2
Epoch rev: 37651
Checksum: 287
Satellite: OKEAN-0
Catalog number: 25860
Epoch time: 06243.72971409
Element set: 839
Inclination: 097.7332 deg
RA of node: 254.5425 deg
Eccentricity: 0.0000655
Arg of perigee: 106.6845 deg
Mean anomaly: 253.4430 deg
Mean motion: 14.73384803 rev/day
Decay rate: 3.4e-07 rev/day^2
Epoch rev: 38287
Checksum: 307
Satellite: NOAA-16
Catalog number: 26536
Epoch time: 06243.16804884
Element set: 24
Inclination: 099.0735 deg
RA of node: 210.6935 deg
Eccentricity: 0.0009735
Arg of perigee: 271.1094 deg
Mean anomaly: 088.8941 deg
Mean motion: 14.12366615 rev/day
Decay rate: 2.66e-06 rev/day^2
Epoch rev: 30616
Checksum: 309
Satellite: NOAA-17
Catalog number: 27453
Epoch time: 06243.22447804
Element set: 43
Inclination: 098.6152 deg
RA of node: 313.9621 deg
Eccentricity: 0.0011404
Arg of perigee: 213.3315 deg
Mean anomaly: 146.7158 deg
Mean motion: 14.23806086 rev/day
Decay rate: 2.30e-06 rev/day^2
Epoch rev: 21745
Checksum: 270
Satellite: NOAA-18
Catalog number: 28654
Epoch time: 06242.87798583
Element set: 0617
Inclination: 098.7902 deg
RA of node: 184.5686 deg
Eccentricity: 0.0014862
Arg of perigee: 013.1706 deg
Mean anomaly: 346.9826 deg
Mean motion: 14.10987031 rev/day
Decay rate: 6.5e-07 rev/day^2
Epoch rev: 06591
Checksum: 344
/EX
SB KEPS @ AMSAT $ORB06243.M
Orbital Elements 06243.MISC
HR AMSAT ORBITAL ELEMENTS FOR MANNED AND MISCELLANEOUS SATELLITES
FROM WA5QGD FORT WORTH,TX August 31, 2006
Send SUBSCRIBE KEPS/UNSUBSCRIBE KEPS to majordomo(a)amsat.org only
BID: ORB06243.M
TO ALL RADIO AMATEURS BT
Satellite: HUBBLE
Catalog number: 20580
Epoch time: 06242.54605249
Element set: 687
Inclination: 028.4700 deg
RA of node: 285.1386 deg
Eccentricity: 0.0003658
Arg of perigee: 249.2177 deg
Mean anomaly: 110.8024 deg
Mean motion: 15.00083480 rev/day
Decay rate: 3.89e-06 rev/day^2
Epoch rev: 69627
Checksum: 297
Satellite: UARS
Catalog number: 21701
Epoch time: 06242.96310641
Element set: 0872
Inclination: 056.9755 deg
RA of node: 129.9855 deg
Eccentricity: 0.0100784
Arg of perigee: 356.6487 deg
Mean anomaly: 003.3878 deg
Mean motion: 15.44409916 rev/day
Decay rate: 6.414e-05 rev/day^2
Epoch rev: 82085
Checksum: 325
Satellite: PO-34
Catalog number: 25520
Epoch time: 06242.50367611
Element set: 0563
Inclination: 028.4619 deg
RA of node: 253.9497 deg
Eccentricity: 0.0005102
Arg of perigee: 327.8567 deg
Mean anomaly: 032.1719 deg
Mean motion: 15.16774933 rev/day
Decay rate: 5.28e-06 rev/day^2
Epoch rev: 43334
Checksum: 304
Satellite: ISS
Catalog number: 25544
Epoch time: 06243.81789068
Element set: 590
Inclination: 051.6315 deg
RA of node: 157.8145 deg
Eccentricity: 0.0011076
Arg of perigee: 286.6600 deg
Mean anomaly: 144.6243 deg
Mean motion: 15.75485411 rev/day
Decay rate: 1.2796e-04 rev/day^2
Epoch rev: 44509
Checksum: 310
Satellite: OO-38
Catalog number: 26063
Epoch time: 06242.50963779
Element set: 0707
Inclination: 100.1892 deg
RA of node: 186.9360 deg
Eccentricity: 0.0036548
Arg of perigee: 258.1633 deg
Mean anomaly: 101.5447 deg
Mean motion: 14.35775050 rev/day
Decay rate: -1.9e-07 rev/day^2
Epoch rev: 34534
Checksum: 310
Satellite: NO-45
Catalog number: 26932
Epoch time: 06242.94642732
Element set: 0412
Inclination: 067.0553 deg
RA of node: 174.8307 deg
Eccentricity: 0.0007397
Arg of perigee: 241.3811 deg
Mean anomaly: 118.6544 deg
Mean motion: 14.29532977 rev/day
Decay rate: -6.1e-07 rev/day^2
Epoch rev: 25665
Checksum: 312
Satellite: UWE-1
Catalog number: 28892
Epoch time: 06242.72482262
Element set: 0540
Inclination: 098.1529 deg
RA of node: 139.7036 deg
Eccentricity: 0.0016862
Arg of perigee: 302.1660 deg
Mean anomaly: 057.7901 deg
Mean motion: 14.59388665 rev/day
Decay rate: 1.77e-06 rev/day^2
Epoch rev: 04484
Checksum: 319
Satellite: CO-58
Catalog number: 28895
Epoch time: 06242.71333312
Element set: 0524
Inclination: 098.1556 deg
RA of node: 139.7989 deg
Eccentricity: 0.0017208
Arg of perigee: 301.9347 deg
Mean anomaly: 058.0188 deg
Mean motion: 14.59439194 rev/day
Decay rate: 1.52e-06 rev/day^2
Epoch rev: 04472
Checksum: 332
Satellite: NCUBE2
Catalog number: 28897
Epoch time: 06242.68268432
Element set: 0113
Inclination: 098.1536 deg
RA of node: 139.7488 deg
Eccentricity: 0.0016797
Arg of perigee: 303.9213 deg
Mean anomaly: 056.0379 deg
Mean motion: 14.59595308 rev/day
Decay rate: 1.35e-06 rev/day^2
Epoch rev: 03699
Checksum: 341
/EX
1
0